Content
SEND FEEDBACK

Daily
Averages
Monthly
Summary
French Polynesia

FAAA, FRENCH POLYNESIA


Home > Oceania > French Polynesia
Elevation: 7 feet     Latitude: 17 33S     Longitude: 149 37W

WEATHER
 
SELECT A DAY
Number of Records: 217,724;   Date Range: 6/30/96 - 12/24/14
 
SHARE

PRINT THIS DATA

[ ← Previous Day ]
WEATHER ALMANAC - MARCH 28, 2013
[ Next Day → ]
[ °C ]   °F
Weather ElementAverageHighLow
Temperature82.3 °F88 °F (2:00 pm)75.2 °F (6:00 am)
Dewpoint72.5 °F75.2 °F (12:00 pm)69.8 °F (2:00 am)
Humidity71.7 %83 % (12:30 am)55 % (2:00 pm)
Barometer29.87 in29.94 in (11:00 pm)29.80 in (3:30 pm)
Wind Speed5.5 mph20.1 mph (2:00 pm)
Weather ElementAverage
Visibility7.5 mi
Wind DirectionENE (74.4 °)

Weather ElementTotal
Precipitation---
Cooling Degree Days16.6 (Base 65)
Growing Degree Days31.6 (Base 50)
Averaged from 55 records on March 28, 2013
WEATHER CONDITIONS BREAKOUT
WIND DIRECTION BREAKOUT
WEATHER BY HOUR - MARCH 28, 2013
[ °C ]   °F
Local TimeTemperatureDewpointHumidityBarometerVisibilityWind DirectionWind SpeedGust SpeedPrecipitationEventsConditions
12:30 AM77.0 °F71.6 °F83 %29.86 in6.2 miSSE (160°)3.5 mphMostly Cloudy
1:00 AM77.0 °F71.6 °F83 %29.86 in6.2 miCalmMostly Cloudy
1:30 AM77.0 °F71.6 °F83 %29.86 in6.2 miSSE (150°)3.5 mphPartly Cloudy
2:00 AM77.0 °F71.0 °F75 %29.87 in12.0 miESE (110°)4.5 mphScattered Clouds
2:00 AM77.0 °F69.8 °F78 %29.86 in6.2 miESE (110°)2.3 mphPartly Cloudy
2:30 AM77.0 °F69.8 °F78 %29.86 in6.2 miEast (80°)3.5 mphPartly Cloudy
3:00 AM77.0 °F69.8 °F78 %29.86 in6.2 miVariable2.3 mphPartly Cloudy
3:30 AM77.0 °F71.6 °F83 %29.86 in6.2 miESE (110°)1.2 mph
4:00 AM77.0 °F71.6 °F83 %29.86 in6.2 miESE (110°)3.5 mph
4:30 AM77.0 °F71.6 °F83 %29.86 in6.2 miCalm
5:00 AM77.0 °F71.0 °F78 %29.86 in37.0 miESE (110°)2.2 mphClear
5:00 AM77.0 °F71.6 °F83 %29.86 in6.2 miESE (110°)1.2 mph
5:30 AM77.0 °F69.8 °F78 %29.86 in6.2 miSE (140°)1.2 mph
6:00 AM75.2 °F69.8 °F83 %29.86 in6.2 miSE (130°)2.3 mphPartly Cloudy
6:30 AM77.0 °F69.8 °F78 %29.86 in6.2 miESE (110°)2.3 mphPartly Cloudy
7:00 AM78.8 °F69.8 °F74 %29.89 in6.2 miEast (100°)3.5 mphPartly Cloudy
7:30 AM82.4 °F71.6 °F70 %29.89 in6.2 miCalmPartly Cloudy
8:00 AM83.0 °F73.0 °F66 %29.91 in12.0 miWest (270°)2.2 mphPartly Cloudy
8:00 AM82.4 °F73.4 °F74 %29.89 in6.2 miWest (270°)1.2 mphPartly Cloudy
8:30 AM82.4 °F73.4 °F74 %29.89 in6.2 miVariable2.3 mphPartly Cloudy
9:00 AM84.2 °F73.4 °F70 %29.92 in6.2 miVariable3.5 mphPartly Cloudy
9:30 AM86.0 °F69.8 °F58 %29.92 in6.2 miNNW (340°)3.5 mphPartly Cloudy
10:00 AM86.0 °F73.4 °F66 %29.89 in6.2 miNNE (30°)5.8 mphScattered Clouds
10:30 AM87.8 °F73.4 °F62 %29.89 in6.2 miNE (40°)11.5 mphPartly Cloudy
11:00 AM87.0 °F74.0 °F57 %29.90 in12.0 miNNE (30°)11.5 mphScattered Clouds
11:00 AM87.8 °F73.4 °F62 %29.89 in6.2 miNNE (30°)11.5 mphPartly Cloudy
11:30 AM87.8 °F73.4 °F62 %29.89 in6.2 miNE (40°)11.5 mphPartly Cloudy
12:00 PM87.8 °F75.2 °F66 %29.86 in6.2 miNE (40°)10.4 mphPartly Cloudy
12:30 PM87.8 °F73.4 °F62 %29.86 in6.2 miNNE (30°)11.5 mphScattered Clouds
1:00 PM87.8 °F75.2 °F66 %29.86 in6.2 miNE (40°)11.5 mphScattered Clouds
1:30 PM87.8 °F75.2 °F66 %29.83 in6.2 miNE (40°)10.4 mphScattered Clouds
2:00 PM88.0 °F74.0 °F55 %29.84 in12.0 miNNE (30°)20.1 mphScattered Clouds
2:00 PM87.8 °F73.4 °F62 %29.83 in6.2 miNNE (30°)10.4 mphScattered Clouds
2:30 PM87.8 °F75.2 °F66 %29.83 in6.2 miNNE (30°)10.4 mphMostly Cloudy
3:00 PM87.8 °F75.2 °F66 %29.83 in6.2 miNE (40°)9.2 mphMostly Cloudy
3:30 PM87.8 °F73.4 °F62 %29.80 in6.2 miNE (40°)9.2 mphMostly Cloudy
4:00 PM86.0 °F73.4 °F66 %29.80 in6.2 miNE (40°)10.4 mphMostly Cloudy
4:30 PM86.0 °F75.2 °F70 %29.80 in6.2 miNE (40°)10.4 mphScattered Clouds
5:00 PM86.0 °F74.0 °F61 %29.83 in12.0 miNE (50°)9.2 mphScattered Clouds
5:00 PM86.0 °F75.2 °F70 %29.83 in6.2 miNE (50°)9.2 mphMostly Cloudy
5:30 PM84.2 °F75.2 °F74 %29.83 in6.2 miNE (50°)9.2 mphMostly Cloudy
6:00 PM84.2 °F75.2 °F74 %29.83 in6.2 miNE (50°)9.2 mphMostly Cloudy
6:30 PM82.4 °F73.4 °F74 %29.86 in6.2 miENE (60°)8.1 mphMostly Cloudy
7:00 PM82.4 °F73.4 °F74 %29.86 in6.2 miNE (50°)5.8 mphMostly Cloudy
7:30 PM82.4 °F73.4 °F74 %29.89 in6.2 miENE (70°)3.5 mphMostly Cloudy
8:00 PM82.0 °F72.0 °F66 %29.91 in12.0 miEast (80°)6.7 mphScattered Clouds
8:00 PM82.4 °F71.6 °F70 %29.89 in6.2 miEast (80°)3.5 mphScattered Clouds
8:30 PM80.6 °F71.6 °F74 %29.89 in6.2 miEast (80°)2.3 mphScattered Clouds
9:00 PM80.6 °F71.6 °F74 %29.92 in6.2 miVariable2.3 mphScattered Clouds
9:30 PM80.6 °F71.6 °F74 %29.92 in6.2 miCalmScattered Clouds
10:00 PM80.6 °F71.6 °F74 %29.92 in6.2 miSSE (150°)1.2 mphScattered Clouds
10:30 PM80.6 °F71.6 °F74 %29.92 in6.2 miCalmScattered Clouds
11:00 PM80.0 °F72.0 °F69 %29.94 in12.0 miSouth (170°)2.3 mphScattered Clouds
11:00 PM78.8 °F71.6 °F78 %29.92 in6.2 miSouth (170°)2.3 mphScattered Clouds
11:30 PM78.8 °F71.6 °F78 %29.92 in6.2 miVariable2.3 mphScattered Clouds
Hourly data recorded from NTAA, located miles away from Faaa, French Polynesia







STORIES FROM OUR PARTNERS